When you browse on this site, cookies collect data to enhance your experience and personalize the content and advertising you see.
Visit our Privacy Policy to learn more. By continuing to use the site, you agree to this use of cookies and data.
  • In Czech Republic
  • List of Countries
  • For 7 days
  • Water Temperature
  • Satellite Maps
  • Weather Map
  • Weather Widgets
  • user-avatar
    Login

    Hourly Weather Mayrhofen

    Today, 17 December, Monday

    Time Temperature Precipitation Wind Pressure Humidity
    00:00 -7°C° 0 mm 1 mps 612 mmHg 87%
    01:00 -7°C° 0 mm 1 mps 612 mmHg 88%
    02:00 -7°C° 0 mm 1 mps 612 mmHg 88%
    03:00 -7°C° 0 mm 1 mps 612 mmHg 88%
    04:00 -8°C° 0 mm 1 mps 612 mmHg 87%
    05:00 -8°C° 0 mm 1 mps 612 mmHg 88%
    06:00 -8°C° 0 mm 1 mps 612 mmHg 88%
    07:00 -8°C° 0 mm 1 mps 612 mmHg 88%
    08:00 -8°C° 0 mm 2 mps 613 mmHg 87%
    09:00 -7°C° 0 mm 2 mps 614 mmHg 86%
    10:00 -6°C° 0 mm 2 mps 615 mmHg 84%
    11:00 -5°C° 0 mm 2 mps 615 mmHg 83%
    12:00 -4°C° 0 mm 2 mps 616 mmHg 82%
    13:00 -3°C° 0 mm 2 mps 616 mmHg 81%
    14:00 -4°C° 0 mm 2 mps 617 mmHg 83%
    15:00 -5°C° 0 mm 2 mps 617 mmHg 86%
    16:00 -6°C° 0 mm 2 mps 617 mmHg 88%
    17:00 -6°C° 0 mm 2 mps 617 mmHg 88%
    18:00 -7°C° 0 mm 2 mps 617 mmHg 89%
    19:00 -8°C° 0 mm 2 mps 618 mmHg 89%
    20:00 -8°C° 0.1 mm 2 mps 618 mmHg 89%
    21:00 -8°C° 0.1 mm 2 mps 619 mmHg 89%
    22:00 -8°C° 0.1 mm 2 mps 619 mmHg 89%
    23:00 -8°C° 0 mm 2 mps 619 mmHg 89%

    Tomorrow, 18 December, Tuesday

    Time Temperature Precipitation Wind Pressure Humidity
    00:00 -9°C° 0 mm 2 mps 619 mmHg 90%
    01:00 -8°C° 0 mm 1 mps 619 mmHg 90%
    02:00 -8°C° 0 mm 1 mps 619 mmHg 89%
    03:00 -9°C° 0 mm 1 mps 619 mmHg 89%
    04:00 -9°C° 0 mm 1 mps 618 mmHg 88%
    05:00 -9°C° 0 mm 1 mps 618 mmHg 85%
    06:00 -10°C° 0 mm 1 mps 618 mmHg 82%
    07:00 -10°C° 0 mm 1 mps 618 mmHg 78%
    08:00 -8°C° 0 mm 1 mps 619 mmHg 74%
    09:00 -7°C° 0 mm 1 mps 619 mmHg 70%
    10:00 -6°C° 0 mm 1 mps 620 mmHg 66%
    11:00 -3°C° 0 mm 1 mps 620 mmHg 67%
    12:00 -2°C° 0 mm 1 mps 620 mmHg 67%
    13:00 -2°C° 0 mm 2 mps 620 mmHg 67%
    14:00 -3°C° 0 mm 2 mps 619 mmHg 69%
    15:00 -5°C° 0 mm 2 mps 618 mmHg 71%
    16:00 -6°C° 0 mm 2 mps 617 mmHg 73%
    17:00 -7°C° 0 mm 2 mps 617 mmHg 70%
    18:00 -7°C° 0 mm 2 mps 617 mmHg 67%
    19:00 -8°C° 0 mm 2 mps 616 mmHg 65%
    20:00 -8°C° 0 mm 2 mps 616 mmHg 62%
    21:00 -8°C° 0 mm 2 mps 616 mmHg 60%
    22:00 -8°C° 0 mm 2 mps 616 mmHg 58%
    23:00 -8°C° 0 mm 2 mps 616 mmHg 57%

    Day after tomorrow, 19 December, Wednesday

    Time Temperature Precipitation Wind Pressure Humidity
    00:00 -8°C° 0 mm 2 mps 615 mmHg 56%
    01:00 -8°C° 0 mm 2 mps 615 mmHg 55%
    02:00 -7°C° 0 mm 2 mps 615 mmHg 54%
    03:00 -7°C° 0 mm 2 mps 615 mmHg 54%
    04:00 -7°C° 0 mm 2 mps 615 mmHg 54%
    05:00 -7°C° 0 mm 2 mps 615 mmHg 54%
    06:00 -6°C° 0 mm 2 mps 615 mmHg 54%
    07:00 -6°C° 0 mm 2 mps 615 mmHg 54%
    08:00 -5°C° 0 mm 2 mps 615 mmHg 56%
    09:00 -2°C° 0 mm 1 mps 616 mmHg 59%
    10:00 -1°C° 0 mm 1 mps 616 mmHg 61%
    11:00 -1°C° 0 mm 1 mps 616 mmHg 63%
    12:00 0°C° 0 mm 1 mps 616 mmHg 64%
    13:00 +1°C° 0 mm 1 mps 616 mmHg 66%
    14:00 0°C° 0 mm 1 mps 615 mmHg 69%
    15:00 -3°C° 0 mm 2 mps 614 mmHg 71%
    16:00 -5°C° 0 mm 2 mps 613 mmHg 74%
    17:00 -5°C° 0 mm 2 mps 613 mmHg 75%
    18:00 -6°C° 0 mm 2 mps 613 mmHg 76%
    19:00 -7°C° 0 mm 2 mps 613 mmHg 77%
    20:00 -7°C° 0 mm 2 mps 613 mmHg 80%
    21:00 -7°C° 0 mm 2 mps 613 mmHg 83%
    22:00 -7°C° 0 mm 2 mps 613 mmHg 85%
    23:00 -7°C° 0.4 mm 2 mps 613 mmHg 88%

    20 December, Thursday

    Time Temperature Precipitation Wind Pressure Humidity
    00:00 -4°C° 0.4 mm 1 mps 613 mmHg 90%
    01:00 -4°C° 0.4 mm 1 mps 613 mmHg 92%
    02:00 -4°C° 0.7 mm 1 mps 613 mmHg 93%
    03:00 -4°C° 0.7 mm 1 mps 613 mmHg 94%
    04:00 -3°C° 0.7 mm 1 mps 613 mmHg 94%
    05:00 -3°C° 1 mm 1 mps 613 mmHg 95%
    06:00 -3°C° 1 mm 1 mps 613 mmHg 95%
    07:00 -3°C° 1 mm 1 mps 613 mmHg 95%
    08:00 -3°C° 0.6 mm 1 mps 614 mmHg 95%
    09:00 -5°C° 0.6 mm 2 mps 614 mmHg 94%
    10:00 -4°C° 0.6 mm 2 mps 614 mmHg 94%
    11:00 -4°C° 0.5 mm 2 mps 614 mmHg 93%
    12:00 -4°C° 0.5 mm 2 mps 614 mmHg 92%
    13:00 -4°C° 0.5 mm 2 mps 614 mmHg 92%
    14:00 -4°C° 0.3 mm 2 mps 614 mmHg 92%
    15:00 -5°C° 0.3 mm 2 mps 614 mmHg 93%
    16:00 -5°C° 0.3 mm 2 mps 614 mmHg 93%
    17:00 -6°C° 0.1 mm 2 mps 614 mmHg 92%
    18:00 -7°C° 0.1 mm 2 mps 614 mmHg 92%
    19:00 -7°C° 0.1 mm 2 mps 614 mmHg 91%
    20:00 -8°C° 0 mm 2 mps 614 mmHg 89%
    21:00 -8°C° 0 mm 2 mps 614 mmHg 87%
    22:00 -8°C° 0 mm 1 mps 615 mmHg 85%
    23:00 -8°C° 0 mm 1 mps 615 mmHg 83%

    21 December, Friday

    Time Temperature Precipitation Wind Pressure Humidity
    00:00 -9°C° 0 mm 1 mps 615 mmHg 82%
    01:00 -9°C° 0 mm 1 mps 615 mmHg 80%
    02:00 -9°C° 0 mm 1 mps 615 mmHg 80%
    03:00 -9°C° 0 mm 1 mps 615 mmHg 80%
    04:00 -9°C° 0 mm 1 mps 615 mmHg 80%
    05:00 -9°C° 0 mm 1 mps 615 mmHg 80%
    06:00 -9°C° 0 mm 1 mps 615 mmHg 79%
    07:00 -9°C° 0 mm 1 mps 615 mmHg 79%
    08:00 -8°C° 0.1 mm 1 mps 616 mmHg 79%
    09:00 -6°C° 0.1 mm 1 mps 616 mmHg 78%
    10:00 -4°C° 0.1 mm 1 mps 617 mmHg 78%
    11:00 -3°C° 0 mm 1 mps 617 mmHg 76%
    12:00 -2°C° 0 mm 1 mps 617 mmHg 73%
    13:00 0°C° 0 mm 1 mps 617 mmHg 71%
    14:00 -1°C° 0 mm 1 mps 617 mmHg 73%
    15:00 -4°C° 0 mm 2 mps 616 mmHg 75%
    16:00 -4°C° 0 mm 2 mps 616 mmHg 77%
    17:00 -5°C° 0.1 mm 2 mps 616 mmHg 77%
    18:00 -5°C° 0.1 mm 2 mps 616 mmHg 77%
    19:00 -5°C° 0.1 mm 2 mps 616 mmHg 76%
    20:00 -5°C° 0.4 mm 2 mps 616 mmHg 78%
    21:00 -4°C° 0.4 mm 2 mps 616 mmHg 79%
    22:00 -4°C° 0.4 mm 2 mps 616 mmHg 81%
    23:00 -4°C° 0.7 mm 2 mps 616 mmHg 83%

    22 December, Saturday

    Time Temperature Precipitation Wind Pressure Humidity
    00:00 -4°C° 0.7 mm 2 mps 616 mmHg 84%
    01:00 -3°C° 0.7 mm 2 mps 616 mmHg 86%
    02:00 -3°C° 0.4 mm 2 mps 616 mmHg 86%
    03:00 -3°C° 0.4 mm 2 mps 616 mmHg 87%
    04:00 -3°C° 0.4 mm 2 mps 616 mmHg 87%
    05:00 -3°C° 0 mm 2 mps 617 mmHg 88%
    06:00 -3°C° 0 mm 2 mps 617 mmHg 90%
    07:00 -2°C° 0 mm 2 mps 617 mmHg 91%
    08:00 -2°C° 0 mm 2 mps 618 mmHg 92%
    09:00 -1°C° 0 mm 2 mps 619 mmHg 92%
    10:00 +1°C° 0 mm 2 mps 619 mmHg 93%
    11:00 +1°C° 0 mm 2 mps 619 mmHg 94%
    12:00 +1°C° 0 mm 2 mps 619 mmHg 94%
    13:00 +3°C° 0 mm 1 mps 619 mmHg 95%
    14:00 +2°C° 0 mm 1 mps 619 mmHg 94%
    15:00 +1°C° 0 mm 1 mps 619 mmHg 93%
    16:00 0°C° 0 mm 1 mps 619 mmHg 91%
    17:00 0°C° 0.1 mm 1 mps 619 mmHg 88%
    18:00 0°C° 0.1 mm 1 mps 619 mmHg 84%
    19:00 0°C° 0.1 mm 1 mps 620 mmHg 81%
    20:00 0°C° 0.6 mm 1 mps 620 mmHg 83%
    21:00 0°C° 0.6 mm 1 mps 620 mmHg 86%
    22:00 0°C° 0.6 mm 1 mps 620 mmHg 88%
    23:00 0°C° 0.7 mm 1 mps 620 mmHg 89%
    Show more